Flight Information

DEPARTURE
OAKLAND, CA
Elevation:
9
Runways:
10L/28R - 5458x150 - ASPH-G
10R/28L - 6213x150 - ASPH-G
15/33 - 3376x75 - ASPH-G
12/30 - 10520x150 - ASPH-G
ATIS:
133.775 510-635-5850
Clearance Delivery:
121.1
Ground:
121.75 (RWY 12-30)
121.9 (RWY 10L-28R, RWY 10R-28L, RWY 15-33)
Tower:
OAKLAND TOWER
118.3 (RWYS 10L-28R,10R-28L,15-33)
127.2 (RWY 12-30)
DESTINATION
,
Elevation:
TPA:
1000 (est.)


6896.5 NM69° True-15° Var53° HDG

Flight Plan:
(click to file on line)

1. Type
2. Aircraft Identification
3. Aircraft Type / Special Equipment
4. True Airspeed
kts
5. Departure Airport
(ICAO code)
6. Arriving Airport
(ICAO code)
7. Cruising Altitude
ft
8. Alternate Airport
(ICAO code)
9. Route of Flight
10. Remarks


00:00:00 Departure ATIS: Destination ATIS:

Clearance Limit:
Route:
Altitude: Expect in minutes
Frequency:
Transponder: (7500 Hijack / 7600 Lost Comms / 7700 Emergency)


KOAK 261353Z 31003KT 9SM OVC006 13/12 A3002 RMK AO2 SLP164 T01330117
Time: 2022-06-26T13:53:00Z
1656253764
Winds: 310 @ 3 kts
Visibility: 9.0 sm
Clouds (AGL): OVC 600
Temperature: 13.3 C
Dew Point: 11.7 C
Pressure: 30.02067 in Hgbr


Notes:

Data extracted from FAA Digital Chart Supplement. Effective: 0901Z Thursday, 27 JAN 2022 to 0900z Thursday, 24 MAR 2022
Current ATIS data is provided courtisy of PilotEdge.